Погода в Редькине

Россия / Московская область     54°50′09″N   38°29′58″E
темп.,
°C
ветер,
м/с
пор.,
м/с
влажн.,
%
обл.,
%
осадки,
мм/ч
давл.,
гПа
погр.,
м
15 мая, сб
сб1500:00+15юв4695100 2.6 101198
03:00+15юв479588 4.6 1010124
06:00+16ююв599896 0.8 1008239
09:00+20ю5887100 1.6 1008375
12:00+22ююз6971100 1.6 10091384
15:00+21ююз69690 2.1 10091512
18:00+19ююз610740 0.4 1010571
21:00+14ю410895 0.6 1011199
16 мая, вс
вс1600:00+13ю5129417 0.0 1011300
03:00+12ююз410960 0.0 1012212
06:00+13ююз410930 0.0 1013265
09:00+17юз58755 0.0 1014624
12:00+18ююз69729 0.2 1014895
15:00+20ююз610683 1.3 10141658
18:00+20зюз47740 0.3 1014355
21:00+15юз2283100 0.3 101511
17 мая, пн
пн1700:00+14ю118467 0.0 101510
03:00+13вюв2286100 0.0 101511
06:00+14в36895 0.0 1015133
09:00+19в587852 0.0 1015425
12:00+23вюв6967100 0.0 1013878
15:00+25юв5868100 0.0 1012971
18:00+22вюв51176100 0.0 1010445
21:00+18вюв516865 0.0 1010374
18 мая, вт
вт1800:00+17юв617825 0.0 1009392
03:00+15юв6157880 0.0 1008326
06:00+15юв5138013 0.0 1008297
09:00+19ююв61175100 0.0 1007488
12:00+23ю7107233 0.0 10081317
15:00+23ю696938 0.6 10081531
18:00+19ю71282100 1.4 1009629
21:00+15ю339063 1.6 100845
19 мая, ср
ср1900:00+14ююв2293100 0.2 100829
03:00+14ююв3493100 0.3 100655
06:00+15юв4895100 0.6 1006271
09:00+17юв5786100 1.0 1004451
12:00+19ююв7977100 1.7 10031161
15:00+17ююв798293 3.4 1001985
18:00+11зюз111792100 1.7 1003907
21:00+12юз9158893 1.8 10061039